Location: Azalea Creek
(37.1280°N, 119.2623°W)
Time: 17:44:34
(UTC+00:00)

STARLINK-1019 - Pass Details

Date: 17 February 2020
Orbit: 548 x 551 km, 53.0° (Epoch: 01 April)

Event Time Altitude Azimuth Distance (km) Brightness Sun altitude
Rises 02:36:15 0° 215° (SW) 2,701 7.8 -12.3°
Reaches altitude 10° 02:38:30 10° 210° (SSW) 1,812 6.8 -12.7°
Maximum altitude 02:42:31 54° 133° (SE) 668 3.8 -13.5°
Enters shadow 02:45:01 22° 63° (ENE) 1,242 4.9 -14.0°
